Starlink 34729

operational
NORAD ID: 65364 Int'l Des: 2025-190 Owner: SPXS Country: US Constellation: starlink
LEOCIRCULAR

Starlink 34729について

説明を読み込み中...

リアルタイム位置

3D地球を読み込み中...

次回通過

高度履歴

Altitude vs Time

uPlot chart will show altitude changes over time

軌道要素

1 65364U 25190P 26062.40396520 .00031109 00000-0 10576-2 0 9991
2 65364 53.1585 197.3133 0003610 121.0480 239.0875 15.30210268 29212
Epoch: Mar 3, 2026 • Age: 25 hours

現在のステータス

高度 485.3 km
速度 7.62 km/s
衛星直下点 -31.95°S, 131.19°W
打ち上げ日 Aug 28, 2025
運用期間 0.5 years
タイプ internet

技術仕様

分類 Payload
質量 575.00 kg
乾燥質量 530.00 kg
総質量 575.00 kg
長さ 0.30 m
直径 4.10 m
スパン 29.00 m
形状 Box + pan
製造者 SPXS
バスタイプ Starlink V2MO
フェーズステータス In Orbit
所有者/国 SPXS/US

大規模コンステレーション

Loading constellations...